Regional Weather Roundup
Issued by NWS

Home | Current Version | Previous Version | Text Only | Print | Product List | Glossary On
Versions: 1 2 3 4 5 6 7 8 9 10 11 12 13 14 15 16 17 18 19 20 21 22 23 24 25 26 27 28 29 30 31 32 33 34 35 36 37 38 39 40 41 42 43 44 45 46 47 48 49 50
419
ASUS45 KREV 140410
RWRNV
NEVADA REGIONAL WEATHER ROUNDUP
NATIONAL WEATHER SERVICE RENO NV
800 PM PST SAT FEB 13 2016

NOTE: "FAIR" INDICATES FEW OR NO CLOUDS BELOW 12,000 FEET WITH NO
SIGNIFICANT WEATHER AND/OR OBSTRUCTIONS TO VISIBILITY.

NVZ001-003-004-140500-
WESTERN NEVADA

CITY           SKY/WX    TMP DP  RH WIND       PRES   REMARKS
RENO           MOCLDY    51  28  41 E7        30.29S
CARSON CITY    FAIR      46  19  34 CALM      30.30R
MINDEN         FAIR      37  27  65 SE6       30.31R
SLIDE MTN        N/A     34  12  40 W8          N/A
PYRAMID LAKE     N/A     52 N/A N/A W5          N/A
FALLON         PTCLDY    44  31  60 SE5       30.27R
LOVELOCK       PTCLDY    42  28  57 W7        30.27R
HAWTHORNE      CLEAR     45  30  57 S5        30.29R
$$

NVZ002-CAZ072-073-140500-
NORTHERN AND CENTRAL SIERRA

CITY           SKY/WX    TMP DP  RH WIND       PRES   REMARKS
S. LAKE TAHOE  MOCLDY    34  25  69 CALM      30.35R
TRUCKEE        MOCLDY    32  28  86 S3        30.35R
SQUAW VLY 8000   N/A     37  18  44 W7          N/A
SUSANVILLE     CLEAR     46  30  53 W6        30.29S
BLUE CANYON    MOCLDY    50  30  46 NE3       30.34R
MAMMOTH LAKES  FAIR      34  12  40 N5        30.36R
BRIDGEPORT     FAIR      35  19  52 CALM      30.34R
$$

NVZ030-031-036-140500-
NORTHERN NEVADA

CITY           SKY/WX    TMP DP  RH WIND       PRES   REMARKS
ELKO           CLOUDY    31  26  82 CALM      30.31R
WINNEMUCCA     MOCLDY    38  29  70 SW5       30.28S
WENDOVER       CLEAR     30  27  86 CALM      30.34S
$$

NVZ035-037-140500-
CENTRAL NEVADA

CITY           SKY/WX    TMP DP  RH WIND       PRES   REMARKS
ELY            PTCLDY    23  17  78 S8        30.32R
EUREKA           N/A     22  17  81 W3        30.33R
$$

NVZ013-014-140500-
SOUTH CENTRAL NEVADA

CITY           SKY/WX    TMP DP  RH WIND       PRES   REMARKS
TONOPAH        CLEAR     42  27  55 N13       30.29R
$$

NVZ017-020-022-140500-
SOUTHERN NEVADA

CITY           SKY/WX    TMP DP  RH WIND       PRES   REMARKS
LAS VEGAS      CLEAR     62  23  22 S6        30.06S
N. LAS VEGAS   CLEAR     61  23  23 N5        30.08F
NELLIS AFB     CLEAR     61  29  30 CALM      30.08S
HENDERSON      CLEAR     58  25  28 S8        30.12F
MERCURY        CLEAR     59  16  18 NE15      30.15F
$$




USA.gov is the U.S. government's official web portal to all federal, state and local government web resources and services.